owner,sensor,date,latitude,longitude,vertical_datum,sea_water_practical_salinity,qcFlag 
ENP,ioos.station.NOAA.NDBC:TRRF1:1,2019-09-01T00:00:00Z,25.2170,-80.6500,1.5,0.6,11111222 
ENP,ioos.station.NOAA.NDBC:TRRF1:1,2019-09-01T01:00:00Z,25.2170,-80.6500,1.5,0.6,11111222 
ENP,ioos.station.NOAA.NDBC:TRRF1:1,2019-09-01T02:00:00Z,25.2170,-80.6500,1.5,0.6,11111222 
ENP,ioos.station.NOAA.NDBC:TRRF1:1,2019-09-01T04:00:00Z,25.2170,-80.6500,1.5,0.59,11111222 
ENP,ioos.station.NOAA.NDBC:TRRF1:1,2019-09-01T06:00:00Z,25.2170,-80.6500,1.5,0.58,11111222 
ENP,ioos.station.NOAA.NDBC:TRRF1:1,2019-09-01T07:00:00Z,25.2170,-80.6500,1.5,0.58,11111222 
ENP,ioos.station.NOAA.NDBC:TRRF1:1,2019-09-01T08:00:00Z,25.2170,-80.6500,1.5,0.58,11111222 
ENP,ioos.station.NOAA.NDBC:TRRF1:1,2019-09-01T09:00:00Z,25.2170,-80.6500,1.5,0.58,11111222 
ENP,ioos.station.NOAA.NDBC:TRRF1:1,2019-09-01T10:00:00Z,25.2170,-80.6500,1.5,0.57,11111222 
ENP,ioos.station.NOAA.NDBC:TRRF1:1,2019-09-01T11:00:00Z,25.2170,-80.6500,1.5,0.57,11111222 
ENP,ioos.station.NOAA.NDBC:TRRF1:1,2019-09-01T12:00:00Z,25.2170,-80.6500,1.5,0.57,11111222 
ENP,ioos.station.NOAA.NDBC:TRRF1:1,2019-09-01T13:00:00Z,25.2170,-80.6500,1.5,0.57,11111222 
ENP,ioos.station.NOAA.NDBC:TRRF1:1,2019-09-01T14:00:00Z,25.2170,-80.6500,1.5,0.57,11111222 
ENP,ioos.station.NOAA.NDBC:TRRF1:1,2019-09-01T15:00:00Z,25.2170,-80.6500,1.5,0.56,11111222 
ENP,ioos.station.NOAA.NDBC:TRRF1:1,2019-09-01T16:00:00Z,25.2170,-80.6500,1.5,0.56,11111222 
ENP,ioos.station.NOAA.NDBC:TRRF1:1,2019-09-01T18:00:00Z,25.2170,-80.6500,1.5,0.56,11111222 
ENP,ioos.station.NOAA.NDBC:TRRF1:1,2019-09-01T19:00:00Z,25.2170,-80.6500,1.5,0.56,11111222 
ENP,ioos.station.NOAA.NDBC:TRRF1:1,2019-09-01T20:00:00Z,25.2170,-80.6500,1.5,0.56,11111222 
ENP,ioos.station.NOAA.NDBC:TRRF1:1,2019-09-01T21:00:00Z,25.2170,-80.6500,1.5,0.56,11111222 
ENP,ioos.station.NOAA.NDBC:TRRF1:1,2019-09-01T22:00:00Z,25.2170,-80.6500,1.5,0.56,11111222 
ENP,ioos.station.NOAA.NDBC:TRRF1:1,2019-09-01T23:00:00Z,25.2170,-80.6500,1.5,0.56,11111222 
ENP,ioos.station.NOAA.NDBC:TRRF1:1,2019-09-02T00:00:00Z,25.2170,-80.6500,1.5,0.56,11111222 
ENP,ioos.station.NOAA.NDBC:TRRF1:1,2019-09-02T01:00:00Z,25.2170,-80.6500,1.5,0.56,11111222 
ENP,ioos.station.NOAA.NDBC:TRRF1:1,2019-09-02T02:00:00Z,25.2170,-80.6500,1.5,0.55,11111222 
ENP,ioos.station.NOAA.NDBC:TRRF1:1,2019-09-02T04:00:00Z,25.2170,-80.6500,1.5,0.55,11111222 
ENP,ioos.station.NOAA.NDBC:TRRF1:1,2019-09-02T06:00:00Z,25.2170,-80.6500,1.5,0.54,11111222 
ENP,ioos.station.NOAA.NDBC:TRRF1:1,2019-09-02T07:00:00Z,25.2170,-80.6500,1.5,0.54,11111222 
ENP,ioos.station.NOAA.NDBC:TRRF1:1,2019-09-02T08:00:00Z,25.2170,-80.6500,1.5,0.54,11111222 
ENP,ioos.station.NOAA.NDBC:TRRF1:1,2019-09-02T09:00:00Z,25.2170,-80.6500,1.5,0.53,11111222 
ENP,ioos.station.NOAA.NDBC:TRRF1:1,2019-09-02T10:00:00Z,25.2170,-80.6500,1.5,0.53,11111222 
ENP,ioos.station.NOAA.NDBC:TRRF1:1,2019-09-02T11:00:00Z,25.2170,-80.6500,1.5,0.53,11111222 
ENP,ioos.station.NOAA.NDBC:TRRF1:1,2019-09-02T12:00:00Z,25.2170,-80.6500,1.5,0.53,11111222 
ENP,ioos.station.NOAA.NDBC:TRRF1:1,2019-09-02T15:00:00Z,25.2170,-80.6500,1.5,0.53,11111222 
ENP,ioos.station.NOAA.NDBC:TRRF1:1,2019-09-02T16:00:00Z,25.2170,-80.6500,1.5,0.52,11111222 
ENP,ioos.station.NOAA.NDBC:TRRF1:1,2019-09-02T18:00:00Z,25.2170,-80.6500,1.5,0.52,11111222 
ENP,ioos.station.NOAA.NDBC:TRRF1:1,2019-09-02T19:00:00Z,25.2170,-80.6500,1.5,0.52,11111222 
ENP,ioos.station.NOAA.NDBC:TRRF1:1,2019-09-02T20:00:00Z,25.2170,-80.6500,1.5,0.52,11111222 
ENP,ioos.station.NOAA.NDBC:TRRF1:1,2019-09-02T21:00:00Z,25.2170,-80.6500,1.5,0.52,11111222 
ENP,ioos.station.NOAA.NDBC:TRRF1:1,2019-09-02T22:00:00Z,25.2170,-80.6500,1.5,0.52,11111222 
ENP,ioos.station.NOAA.NDBC:TRRF1:1,2019-09-02T23:00:00Z,25.2170,-80.6500,1.5,0.52,11111222 
ENP,ioos.station.NOAA.NDBC:TRRF1:1,2019-09-03T00:00:00Z,25.2170,-80.6500,1.5,0.52,11111222 
ENP,ioos.station.NOAA.NDBC:TRRF1:1,2019-09-03T02:00:00Z,25.2170,-80.6500,1.5,0.52,11111222 
ENP,ioos.station.NOAA.NDBC:TRRF1:1,2019-09-03T04:00:00Z,25.2170,-80.6500,1.5,0.52,11111222 
ENP,ioos.station.NOAA.NDBC:TRRF1:1,2019-09-03T06:00:00Z,25.2170,-80.6500,1.5,0.51,11111222 
ENP,ioos.station.NOAA.NDBC:TRRF1:1,2019-09-03T07:00:00Z,25.2170,-80.6500,1.5,0.51,11111222 
ENP,ioos.station.NOAA.NDBC:TRRF1:1,2019-09-03T08:00:00Z,25.2170,-80.6500,1.5,0.51,11111222 
ENP,ioos.station.NOAA.NDBC:TRRF1:1,2019-09-03T09:00:00Z,25.2170,-80.6500,1.5,0.51,11111222 
ENP,ioos.station.NOAA.NDBC:TRRF1:1,2019-09-03T10:00:00Z,25.2170,-80.6500,1.5,0.51,11111222 
ENP,ioos.station.NOAA.NDBC:TRRF1:1,2019-09-03T11:00:00Z,25.2170,-80.6500,1.5,0.51,11111222 
ENP,ioos.station.NOAA.NDBC:TRRF1:1,2019-09-03T12:00:00Z,25.2170,-80.6500,1.5,0.51,11111222 
ENP,ioos.station.NOAA.NDBC:TRRF1:1,2019-09-03T13:00:00Z,25.2170,-80.6500,1.5,0.51,11111222 
ENP,ioos.station.NOAA.NDBC:TRRF1:1,2019-09-03T14:00:00Z,25.2170,-80.6500,1.5,0.51,11111222 
ENP,ioos.station.NOAA.NDBC:TRRF1:1,2019-09-03T15:00:00Z,25.2170,-80.6500,1.5,0.51,11111222 
ENP,ioos.station.NOAA.NDBC:TRRF1:1,2019-09-03T16:00:00Z,25.2170,-80.6500,1.5,0.51,11111222 
ENP,ioos.station.NOAA.NDBC:TRRF1:1,2019-09-03T18:00:00Z,25.2170,-80.6500,1.5,0.51,11111222 
ENP,ioos.station.NOAA.NDBC:TRRF1:1,2019-09-03T19:00:00Z,25.2170,-80.6500,1.5,0.51,11111222 
ENP,ioos.station.NOAA.NDBC:TRRF1:1,2019-09-03T20:00:00Z,25.2170,-80.6500,1.5,0.51,11111222 
ENP,ioos.station.NOAA.NDBC:TRRF1:1,2019-09-03T21:00:00Z,25.2170,-80.6500,1.5,0.51,11111222 
ENP,ioos.station.NOAA.NDBC:TRRF1:1,2019-09-03T22:00:00Z,25.2170,-80.6500,1.5,0.51,11111222 
ENP,ioos.station.NOAA.NDBC:TRRF1:1,2019-09-03T23:00:00Z,25.2170,-80.6500,1.5,0.51,11111222 
ENP,ioos.station.NOAA.NDBC:TRRF1:1,2019-09-04T00:00:00Z,25.2170,-80.6500,1.5,0.52,11111222 
ENP,ioos.station.NOAA.NDBC:TRRF1:1,2019-09-04T02:00:00Z,25.2170,-80.6500,1.5,0.53,11111222 
ENP,ioos.station.NOAA.NDBC:TRRF1:1,2019-09-04T04:00:00Z,25.2170,-80.6500,1.5,0.53,11111222 
ENP,ioos.station.NOAA.NDBC:TRRF1:1,2019-09-04T06:00:00Z,25.2170,-80.6500,1.5,0.53,11111222 
ENP,ioos.station.NOAA.NDBC:TRRF1:1,2019-09-04T07:00:00Z,25.2170,-80.6500,1.5,0.53,11111222 
ENP,ioos.station.NOAA.NDBC:TRRF1:1,2019-09-04T08:00:00Z,25.2170,-80.6500,1.5,0.53,11111222 
ENP,ioos.station.NOAA.NDBC:TRRF1:1,2019-09-04T09:00:00Z,25.2170,-80.6500,1.5,0.53,11111222 
ENP,ioos.station.NOAA.NDBC:TRRF1:1,2019-09-04T10:00:00Z,25.2170,-80.6500,1.5,0.58,11111222 
ENP,ioos.station.NOAA.NDBC:TRRF1:1,2019-09-04T11:00:00Z,25.2170,-80.6500,1.5,1.48,11111222 
ENP,ioos.station.NOAA.NDBC:TRRF1:1,2019-09-04T12:00:00Z,25.2170,-80.6500,1.5,5.48,11111222 
ENP,ioos.station.NOAA.NDBC:TRRF1:1,2019-09-04T13:00:00Z,25.2170,-80.6500,1.5,9.7,11111222 
ENP,ioos.station.NOAA.NDBC:TRRF1:1,2019-09-04T14:00:00Z,25.2170,-80.6500,1.5,10.77,11111222 
ENP,ioos.station.NOAA.NDBC:TRRF1:1,2019-09-04T15:00:00Z,25.2170,-80.6500,1.5,11.97,11111222 
ENP,ioos.station.NOAA.NDBC:TRRF1:1,2019-09-04T16:00:00Z,25.2170,-80.6500,1.5,13.09,11111222 
ENP,ioos.station.NOAA.NDBC:TRRF1:1,2019-09-04T18:00:00Z,25.2170,-80.6500,1.5,14.73,11111222 
ENP,ioos.station.NOAA.NDBC:TRRF1:1,2019-09-04T19:00:00Z,25.2170,-80.6500,1.5,15.17,11111222 
ENP,ioos.station.NOAA.NDBC:TRRF1:1,2019-09-04T20:00:00Z,25.2170,-80.6500,1.5,15.42,11111222 
ENP,ioos.station.NOAA.NDBC:TRRF1:1,2019-09-04T21:00:00Z,25.2170,-80.6500,1.5,15.72,11111222 
ENP,ioos.station.NOAA.NDBC:TRRF1:1,2019-09-04T22:00:00Z,25.2170,-80.6500,1.5,16.01,11111222 
ENP,ioos.station.NOAA.NDBC:TRRF1:1,2019-09-04T23:00:00Z,25.2170,-80.6500,1.5,16.14,11111222 
ENP,ioos.station.NOAA.NDBC:TRRF1:1,2019-09-05T00:00:00Z,25.2170,-80.6500,1.5,16.38,11111222 
ENP,ioos.station.NOAA.NDBC:TRRF1:1,2019-09-05T01:00:00Z,25.2170,-80.6500,1.5,16.58,11111222 
ENP,ioos.station.NOAA.NDBC:TRRF1:1,2019-09-05T02:00:00Z,25.2170,-80.6500,1.5,16.9,11111222 
ENP,ioos.station.NOAA.NDBC:TRRF1:1,2019-09-05T04:00:00Z,25.2170,-80.6500,1.5,18.13,11111222 
ENP,ioos.station.NOAA.NDBC:TRRF1:1,2019-09-05T06:00:00Z,25.2170,-80.6500,1.5,19.24,11111222 
ENP,ioos.station.NOAA.NDBC:TRRF1:1,2019-09-05T07:00:00Z,25.2170,-80.6500,1.5,19.63,11111222 
ENP,ioos.station.NOAA.NDBC:TRRF1:1,2019-09-05T08:00:00Z,25.2170,-80.6500,1.5,19.91,11111222 
ENP,ioos.station.NOAA.NDBC:TRRF1:1,2019-09-05T09:00:00Z,25.2170,-80.6500,1.5,20.1,11111222 
ENP,ioos.station.NOAA.NDBC:TRRF1:1,2019-09-05T10:00:00Z,25.2170,-80.6500,1.5,20.21,11111222 
ENP,ioos.station.NOAA.NDBC:TRRF1:1,2019-09-05T11:00:00Z,25.2170,-80.6500,1.5,20.4,11111222 
ENP,ioos.station.NOAA.NDBC:TRRF1:1,2019-09-05T12:00:00Z,25.2170,-80.6500,1.5,20.48,11111222 
ENP,ioos.station.NOAA.NDBC:TRRF1:1,2019-09-05T13:00:00Z,25.2170,-80.6500,1.5,20.54,11111222 
ENP,ioos.station.NOAA.NDBC:TRRF1:1,2019-09-05T14:00:00Z,25.2170,-80.6500,1.5,20.69,11111222 
ENP,ioos.station.NOAA.NDBC:TRRF1:1,2019-09-05T15:00:00Z,25.2170,-80.6500,1.5,20.9,11111222 
ENP,ioos.station.NOAA.NDBC:TRRF1:1,2019-09-05T16:00:00Z,25.2170,-80.6500,1.5,21.07,11111222 
ENP,ioos.station.NOAA.NDBC:TRRF1:1,2019-09-05T18:00:00Z,25.2170,-80.6500,1.5,21.53,11111222 
ENP,ioos.station.NOAA.NDBC:TRRF1:1,2019-09-05T19:00:00Z,25.2170,-80.6500,1.5,21.63,11111222 
ENP,ioos.station.NOAA.NDBC:TRRF1:1,2019-09-05T20:00:00Z,25.2170,-80.6500,1.5,21.7,11111222 
ENP,ioos.station.NOAA.NDBC:TRRF1:1,2019-09-05T21:00:00Z,25.2170,-80.6500,1.5,21.77,11111222 
ENP,ioos.station.NOAA.NDBC:TRRF1:1,2019-09-05T22:00:00Z,25.2170,-80.6500,1.5,21.86,11111222 
ENP,ioos.station.NOAA.NDBC:TRRF1:1,2019-09-05T23:00:00Z,25.2170,-80.6500,1.5,21.93,11111222 
ENP,ioos.station.NOAA.NDBC:TRRF1:1,2019-09-06T00:00:00Z,25.2170,-80.6500,1.5,22.04,11111222 
ENP,ioos.station.NOAA.NDBC:TRRF1:1,2019-09-06T02:00:00Z,25.2170,-80.6500,1.5,22.22,11111222 
ENP,ioos.station.NOAA.NDBC:TRRF1:1,2019-09-06T04:00:00Z,25.2170,-80.6500,1.5,22.56,11111222 
ENP,ioos.station.NOAA.NDBC:TRRF1:1,2019-09-06T06:00:00Z,25.2170,-80.6500,1.5,22.86,11111222 
ENP,ioos.station.NOAA.NDBC:TRRF1:1,2019-09-06T07:00:00Z,25.2170,-80.6500,1.5,23.02,11111222 
ENP,ioos.station.NOAA.NDBC:TRRF1:1,2019-09-06T08:00:00Z,25.2170,-80.6500,1.5,23.11,11111222 
ENP,ioos.station.NOAA.NDBC:TRRF1:1,2019-09-06T09:00:00Z,25.2170,-80.6500,1.5,23.16,11111222 
ENP,ioos.station.NOAA.NDBC:TRRF1:1,2019-09-06T10:00:00Z,25.2170,-80.6500,1.5,23.21,11111222 
ENP,ioos.station.NOAA.NDBC:TRRF1:1,2019-09-06T11:00:00Z,25.2170,-80.6500,1.5,23.25,11111222 
ENP,ioos.station.NOAA.NDBC:TRRF1:1,2019-09-06T12:00:00Z,25.2170,-80.6500,1.5,23.3,11111222 
ENP,ioos.station.NOAA.NDBC:TRRF1:1,2019-09-06T13:00:00Z,25.2170,-80.6500,1.5,23.33,11111222 
ENP,ioos.station.NOAA.NDBC:TRRF1:1,2019-09-06T14:00:00Z,25.2170,-80.6500,1.5,23.37,11111222 
ENP,ioos.station.NOAA.NDBC:TRRF1:1,2019-09-06T15:00:00Z,25.2170,-80.6500,1.5,23.37,11111222 
ENP,ioos.station.NOAA.NDBC:TRRF1:1,2019-09-06T16:00:00Z,25.2170,-80.6500,1.5,23.37,11111222 
ENP,ioos.station.NOAA.NDBC:TRRF1:1,2019-09-06T18:00:00Z,25.2170,-80.6500,1.5,23.28,11111222 
ENP,ioos.station.NOAA.NDBC:TRRF1:1,2019-09-06T19:00:00Z,25.2170,-80.6500,1.5,23.23,11111222 
ENP,ioos.station.NOAA.NDBC:TRRF1:1,2019-09-06T20:00:00Z,25.2170,-80.6500,1.5,23.19,11111222 
ENP,ioos.station.NOAA.NDBC:TRRF1:1,2019-09-06T21:00:00Z,25.2170,-80.6500,1.5,23.15,11111222 
ENP,ioos.station.NOAA.NDBC:TRRF1:1,2019-09-06T22:00:00Z,25.2170,-80.6500,1.5,22.91,11111222 
ENP,ioos.station.NOAA.NDBC:TRRF1:1,2019-09-06T23:00:00Z,25.2170,-80.6500,1.5,22.59,11111222 
ENP,ioos.station.NOAA.NDBC:TRRF1:1,2019-09-07T00:00:00Z,25.2170,-80.6500,1.5,22.38,11111222 
ENP,ioos.station.NOAA.NDBC:TRRF1:1,2019-09-07T02:00:00Z,25.2170,-80.6500,1.5,22.2,11111222 
ENP,ioos.station.NOAA.NDBC:TRRF1:1,2019-09-07T04:00:00Z,25.2170,-80.6500,1.5,22.18,11111222 
ENP,ioos.station.NOAA.NDBC:TRRF1:1,2019-09-07T06:00:00Z,25.2170,-80.6500,1.5,22.18,11111222 
ENP,ioos.station.NOAA.NDBC:TRRF1:1,2019-09-07T07:00:00Z,25.2170,-80.6500,1.5,22.16,11111222 
ENP,ioos.station.NOAA.NDBC:TRRF1:1,2019-09-07T08:00:00Z,25.2170,-80.6500,1.5,22.17,11111222 
ENP,ioos.station.NOAA.NDBC:TRRF1:1,2019-09-07T09:00:00Z,25.2170,-80.6500,1.5,22.17,11111222 
ENP,ioos.station.NOAA.NDBC:TRRF1:1,2019-09-07T10:00:00Z,25.2170,-80.6500,1.5,22.15,11111222 
ENP,ioos.station.NOAA.NDBC:TRRF1:1,2019-09-07T11:00:00Z,25.2170,-80.6500,1.5,22.1,11111222 
ENP,ioos.station.NOAA.NDBC:TRRF1:1,2019-09-07T12:00:00Z,25.2170,-80.6500,1.5,22.04,11111222 
ENP,ioos.station.NOAA.NDBC:TRRF1:1,2019-09-07T13:00:00Z,25.2170,-80.6500,1.5,21.97,11111222 
ENP,ioos.station.NOAA.NDBC:TRRF1:1,2019-09-07T14:00:00Z,25.2170,-80.6500,1.5,21.86,11111222 
ENP,ioos.station.NOAA.NDBC:TRRF1:1,2019-09-07T15:00:00Z,25.2170,-80.6500,1.5,21.68,11111222 
ENP,ioos.station.NOAA.NDBC:TRRF1:1,2019-09-07T16:00:00Z,25.2170,-80.6500,1.5,21.53,11111222 
ENP,ioos.station.NOAA.NDBC:TRRF1:1,2019-09-07T18:00:00Z,25.2170,-80.6500,1.5,21.24,11111222 
ENP,ioos.station.NOAA.NDBC:TRRF1:1,2019-09-07T19:00:00Z,25.2170,-80.6500,1.5,21.08,11111222 
ENP,ioos.station.NOAA.NDBC:TRRF1:1,2019-09-07T20:00:00Z,25.2170,-80.6500,1.5,20.44,11111222 
ENP,ioos.station.NOAA.NDBC:TRRF1:1,2019-09-07T21:00:00Z,25.2170,-80.6500,1.5,19.56,11111222 
ENP,ioos.station.NOAA.NDBC:TRRF1:1,2019-09-07T22:00:00Z,25.2170,-80.6500,1.5,19.72,11111222 
ENP,ioos.station.NOAA.NDBC:TRRF1:1,2019-09-07T23:00:00Z,25.2170,-80.6500,1.5,19.3,11111222 
ENP,ioos.station.NOAA.NDBC:TRRF1:1,2019-09-08T00:00:00Z,25.2170,-80.6500,1.5,19.34,11111222 
ENP,ioos.station.NOAA.NDBC:TRRF1:1,2019-09-08T01:00:00Z,25.2170,-80.6500,1.5,18.29,11111222 
ENP,ioos.station.NOAA.NDBC:TRRF1:1,2019-09-08T02:00:00Z,25.2170,-80.6500,1.5,17.73,11111222 
ENP,ioos.station.NOAA.NDBC:TRRF1:1,2019-09-08T04:00:00Z,25.2170,-80.6500,1.5,16.87,11111222 
ENP,ioos.station.NOAA.NDBC:TRRF1:1,2019-09-08T06:00:00Z,25.2170,-80.6500,1.5,16.47,11111222 
ENP,ioos.station.NOAA.NDBC:TRRF1:1,2019-09-08T07:00:00Z,25.2170,-80.6500,1.5,16.31,11111222 
ENP,ioos.station.NOAA.NDBC:TRRF1:1,2019-09-08T08:00:00Z,25.2170,-80.6500,1.5,16.14,11111222 
ENP,ioos.station.NOAA.NDBC:TRRF1:1,2019-09-08T09:00:00Z,25.2170,-80.6500,1.5,16.02,11111222 
ENP,ioos.station.NOAA.NDBC:TRRF1:1,2019-09-08T10:00:00Z,25.2170,-80.6500,1.5,15.83,11111222 
ENP,ioos.station.NOAA.NDBC:TRRF1:1,2019-09-08T11:00:00Z,25.2170,-80.6500,1.5,15.52,11111222 
ENP,ioos.station.NOAA.NDBC:TRRF1:1,2019-09-08T12:00:00Z,25.2170,-80.6500,1.5,15.0,11111222 
ENP,ioos.station.NOAA.NDBC:TRRF1:1,2019-09-08T13:00:00Z,25.2170,-80.6500,1.5,14.06,11111222 
ENP,ioos.station.NOAA.NDBC:TRRF1:1,2019-09-08T14:00:00Z,25.2170,-80.6500,1.5,13.0,11111222 
ENP,ioos.station.NOAA.NDBC:TRRF1:1,2019-09-08T15:00:00Z,25.2170,-80.6500,1.5,11.52,11111222 
ENP,ioos.station.NOAA.NDBC:TRRF1:1,2019-09-08T16:00:00Z,25.2170,-80.6500,1.5,10.65,11111222 
ENP,ioos.station.NOAA.NDBC:TRRF1:1,2019-09-08T17:00:00Z,25.2170,-80.6500,1.5,9.97,11111222 
ENP,ioos.station.NOAA.NDBC:TRRF1:1,2019-09-08T18:00:00Z,25.2170,-80.6500,1.5,9.38,11111222 
ENP,ioos.station.NOAA.NDBC:TRRF1:1,2019-09-08T19:00:00Z,25.2170,-80.6500,1.5,8.31,11111222 
ENP,ioos.station.NOAA.NDBC:TRRF1:1,2019-09-08T20:00:00Z,25.2170,-80.6500,1.5,6.77,11111222 
ENP,ioos.station.NOAA.NDBC:TRRF1:1,2019-09-08T21:00:00Z,25.2170,-80.6500,1.5,6.63,11111222 
ENP,ioos.station.NOAA.NDBC:TRRF1:1,2019-09-08T22:00:00Z,25.2170,-80.6500,1.5,6.51,11111222 
ENP,ioos.station.NOAA.NDBC:TRRF1:1,2019-09-08T23:00:00Z,25.2170,-80.6500,1.5,7.08,11111222 
ENP,ioos.station.NOAA.NDBC:TRRF1:1,2019-09-09T00:00:00Z,25.2170,-80.6500,1.5,7.11,11111222 
ENP,ioos.station.NOAA.NDBC:TRRF1:1,2019-09-09T01:00:00Z,25.2170,-80.6500,1.5,6.92,11111222 
ENP,ioos.station.NOAA.NDBC:TRRF1:1,2019-09-09T02:00:00Z,25.2170,-80.6500,1.5,6.62,11111222 
ENP,ioos.station.NOAA.NDBC:TRRF1:1,2019-09-09T04:00:00Z,25.2170,-80.6500,1.5,5.93,11111222 
ENP,ioos.station.NOAA.NDBC:TRRF1:1,2019-09-09T05:00:00Z,25.2170,-80.6500,1.5,5.82,11111222 
ENP,ioos.station.NOAA.NDBC:TRRF1:1,2019-09-09T06:00:00Z,25.2170,-80.6500,1.5,5.56,11111222 
ENP,ioos.station.NOAA.NDBC:TRRF1:1,2019-09-09T07:00:00Z,25.2170,-80.6500,1.5,5.29,11111222 
ENP,ioos.station.NOAA.NDBC:TRRF1:1,2019-09-09T08:00:00Z,25.2170,-80.6500,1.5,4.99,11111222 
ENP,ioos.station.NOAA.NDBC:TRRF1:1,2019-09-09T09:00:00Z,25.2170,-80.6500,1.5,4.69,11111222 
ENP,ioos.station.NOAA.NDBC:TRRF1:1,2019-09-09T10:00:00Z,25.2170,-80.6500,1.5,4.39,11111222 
ENP,ioos.station.NOAA.NDBC:TRRF1:1,2019-09-09T11:00:00Z,25.2170,-80.6500,1.5,4.39,11111222 
ENP,ioos.station.NOAA.NDBC:TRRF1:1,2019-09-09T12:00:00Z,25.2170,-80.6500,1.5,3.86,11111222 
ENP,ioos.station.NOAA.NDBC:TRRF1:1,2019-09-09T13:00:00Z,25.2170,-80.6500,1.5,3.5,11111222 
ENP,ioos.station.NOAA.NDBC:TRRF1:1,2019-09-09T14:00:00Z,25.2170,-80.6500,1.5,3.09,11111222 
ENP,ioos.station.NOAA.NDBC:TRRF1:1,2019-09-09T15:00:00Z,25.2170,-80.6500,1.5,2.83,11111222 
ENP,ioos.station.NOAA.NDBC:TRRF1:1,2019-09-09T16:00:00Z,25.2170,-80.6500,1.5,2.66,11111222 
ENP,ioos.station.NOAA.NDBC:TRRF1:1,2019-09-09T21:00:00Z,25.2170,-80.6500,1.5,2.0,11111222 
ENP,ioos.station.NOAA.NDBC:TRRF1:1,2019-09-09T22:00:00Z,25.2170,-80.6500,1.5,1.96,11111222 
ENP,ioos.station.NOAA.NDBC:TRRF1:1,2019-09-09T23:00:00Z,25.2170,-80.6500,1.5,2.0,11111222 
ENP,ioos.station.NOAA.NDBC:TRRF1:1,2019-09-10T00:00:00Z,25.2170,-80.6500,1.5,2.09,11111222 
ENP,ioos.station.NOAA.NDBC:TRRF1:1,2019-09-10T01:00:00Z,25.2170,-80.6500,1.5,2.27,11111222 
ENP,ioos.station.NOAA.NDBC:TRRF1:1,2019-09-10T02:00:00Z,25.2170,-80.6500,1.5,2.51,11111222 
ENP,ioos.station.NOAA.NDBC:TRRF1:1,2019-09-10T04:00:00Z,25.2170,-80.6500,1.5,2.58,11111222 
ENP,ioos.station.NOAA.NDBC:TRRF1:1,2019-09-10T06:00:00Z,25.2170,-80.6500,1.5,2.58,11111222 
ENP,ioos.station.NOAA.NDBC:TRRF1:1,2019-09-10T07:00:00Z,25.2170,-80.6500,1.5,2.57,11111222 
ENP,ioos.station.NOAA.NDBC:TRRF1:1,2019-09-10T08:00:00Z,25.2170,-80.6500,1.5,2.55,11111222 
ENP,ioos.station.NOAA.NDBC:TRRF1:1,2019-09-10T09:00:00Z,25.2170,-80.6500,1.5,2.49,11111222 
ENP,ioos.station.NOAA.NDBC:TRRF1:1,2019-09-10T10:00:00Z,25.2170,-80.6500,1.5,2.45,11111222 
ENP,ioos.station.NOAA.NDBC:TRRF1:1,2019-09-10T11:00:00Z,25.2170,-80.6500,1.5,2.56,11111222 
ENP,ioos.station.NOAA.NDBC:TRRF1:1,2019-09-10T12:00:00Z,25.2170,-80.6500,1.5,2.48,11111222 
ENP,ioos.station.NOAA.NDBC:TRRF1:1,2019-09-10T13:00:00Z,25.2170,-80.6500,1.5,2.33,11111222 
ENP,ioos.station.NOAA.NDBC:TRRF1:1,2019-09-10T14:00:00Z,25.2170,-80.6500,1.5,2.23,11111222 
ENP,ioos.station.NOAA.NDBC:TRRF1:1,2019-09-10T15:00:00Z,25.2170,-80.6500,1.5,2.15,11111222 
ENP,ioos.station.NOAA.NDBC:TRRF1:1,2019-09-10T16:00:00Z,25.2170,-80.6500,1.5,2.06,11111222 
ENP,ioos.station.NOAA.NDBC:TRRF1:1,2019-09-10T18:00:00Z,25.2170,-80.6500,1.5,1.84,11111222 
ENP,ioos.station.NOAA.NDBC:TRRF1:1,2019-09-10T19:00:00Z,25.2170,-80.6500,1.5,1.78,11111222 
ENP,ioos.station.NOAA.NDBC:TRRF1:1,2019-09-10T20:00:00Z,25.2170,-80.6500,1.5,1.71,11111222 
ENP,ioos.station.NOAA.NDBC:TRRF1:1,2019-09-10T21:00:00Z,25.2170,-80.6500,1.5,1.65,11111222 
ENP,ioos.station.NOAA.NDBC:TRRF1:1,2019-09-10T22:00:00Z,25.2170,-80.6500,1.5,1.6,11111222 
ENP,ioos.station.NOAA.NDBC:TRRF1:1,2019-09-11T00:00:00Z,25.2170,-80.6500,1.5,1.65,11111222 
ENP,ioos.station.NOAA.NDBC:TRRF1:1,2019-09-11T01:00:00Z,25.2170,-80.6500,1.5,1.7,11111222 
ENP,ioos.station.NOAA.NDBC:TRRF1:1,2019-09-11T02:00:00Z,25.2170,-80.6500,1.5,1.68,11111222 
ENP,ioos.station.NOAA.NDBC:TRRF1:1,2019-09-11T04:00:00Z,25.2170,-80.6500,1.5,1.59,11111222 
ENP,ioos.station.NOAA.NDBC:TRRF1:1,2019-09-11T06:00:00Z,25.2170,-80.6500,1.5,1.51,11111222 
ENP,ioos.station.NOAA.NDBC:TRRF1:1,2019-09-11T07:00:00Z,25.2170,-80.6500,1.5,1.48,11111222 
ENP,ioos.station.NOAA.NDBC:TRRF1:1,2019-09-11T08:00:00Z,25.2170,-80.6500,1.5,1.42,11111222 
ENP,ioos.station.NOAA.NDBC:TRRF1:1,2019-09-11T09:00:00Z,25.2170,-80.6500,1.5,1.31,11111222 
ENP,ioos.station.NOAA.NDBC:TRRF1:1,2019-09-11T10:00:00Z,25.2170,-80.6500,1.5,1.22,11111222 
ENP,ioos.station.NOAA.NDBC:TRRF1:1,2019-09-11T11:00:00Z,25.2170,-80.6500,1.5,1.14,11111222 
ENP,ioos.station.NOAA.NDBC:TRRF1:1,2019-09-11T12:00:00Z,25.2170,-80.6500,1.5,1.07,11111222 
ENP,ioos.station.NOAA.NDBC:TRRF1:1,2019-09-11T13:00:00Z,25.2170,-80.6500,1.5,1.0,11111222 
ENP,ioos.station.NOAA.NDBC:TRRF1:1,2019-09-11T14:00:00Z,25.2170,-80.6500,1.5,0.94,11111222 
ENP,ioos.station.NOAA.NDBC:TRRF1:1,2019-09-11T15:00:00Z,25.2170,-80.6500,1.5,0.9,11111222 
ENP,ioos.station.NOAA.NDBC:TRRF1:1,2019-09-11T16:00:00Z,25.2170,-80.6500,1.5,0.87,11111222 
ENP,ioos.station.NOAA.NDBC:TRRF1:1,2019-09-11T19:00:00Z,25.2170,-80.6500,1.5,0.75,11111222 
ENP,ioos.station.NOAA.NDBC:TRRF1:1,2019-09-11T20:00:00Z,25.2170,-80.6500,1.5,0.73,11111222 
ENP,ioos.station.NOAA.NDBC:TRRF1:1,2019-09-11T21:00:00Z,25.2170,-80.6500,1.5,0.73,11111222 
ENP,ioos.station.NOAA.NDBC:TRRF1:1,2019-09-11T22:00:00Z,25.2170,-80.6500,1.5,0.73,11111222 
ENP,ioos.station.NOAA.NDBC:TRRF1:1,2019-09-11T23:00:00Z,25.2170,-80.6500,1.5,0.73,11111222 
ENP,ioos.station.NOAA.NDBC:TRRF1:1,2019-09-12T00:00:00Z,25.2170,-80.6500,1.5,0.73,11111222 
ENP,ioos.station.NOAA.NDBC:TRRF1:1,2019-09-12T01:00:00Z,25.2170,-80.6500,1.5,0.73,11111222 
ENP,ioos.station.NOAA.NDBC:TRRF1:1,2019-09-12T02:00:00Z,25.2170,-80.6500,1.5,0.72,11111222 
ENP,ioos.station.NOAA.NDBC:TRRF1:1,2019-09-12T04:00:00Z,25.2170,-80.6500,1.5,0.69,11111222 
ENP,ioos.station.NOAA.NDBC:TRRF1:1,2019-09-12T06:00:00Z,25.2170,-80.6500,1.5,0.69,11111222 
ENP,ioos.station.NOAA.NDBC:TRRF1:1,2019-09-12T07:00:00Z,25.2170,-80.6500,1.5,0.67,11111222 
ENP,ioos.station.NOAA.NDBC:TRRF1:1,2019-09-12T08:00:00Z,25.2170,-80.6500,1.5,0.67,11111222 
ENP,ioos.station.NOAA.NDBC:TRRF1:1,2019-09-12T09:00:00Z,25.2170,-80.6500,1.5,0.66,11111222 
ENP,ioos.station.NOAA.NDBC:TRRF1:1,2019-09-12T10:00:00Z,25.2170,-80.6500,1.5,0.66,11111222 
ENP,ioos.station.NOAA.NDBC:TRRF1:1,2019-09-12T11:00:00Z,25.2170,-80.6500,1.5,0.65,11111222 
ENP,ioos.station.NOAA.NDBC:TRRF1:1,2019-09-12T12:00:00Z,25.2170,-80.6500,1.5,0.64,11111222 
ENP,ioos.station.NOAA.NDBC:TRRF1:1,2019-09-12T13:00:00Z,25.2170,-80.6500,1.5,0.64,11111222 
ENP,ioos.station.NOAA.NDBC:TRRF1:1,2019-09-12T14:00:00Z,25.2170,-80.6500,1.5,0.64,11111222 
ENP,ioos.station.NOAA.NDBC:TRRF1:1,2019-09-12T15:00:00Z,25.2170,-80.6500,1.5,0.63,11111222 
ENP,ioos.station.NOAA.NDBC:TRRF1:1,2019-09-13T19:00:00Z,25.2170,-80.6500,1.5,0.6,11111222 
ENP,ioos.station.NOAA.NDBC:TRRF1:1,2019-09-13T20:00:00Z,25.2170,-80.6500,1.5,0.6,11111222 
ENP,ioos.station.NOAA.NDBC:TRRF1:1,2019-09-13T21:00:00Z,25.2170,-80.6500,1.5,0.6,11111222 
ENP,ioos.station.NOAA.NDBC:TRRF1:1,2019-09-13T22:00:00Z,25.2170,-80.6500,1.5,0.61,11111222 
ENP,ioos.station.NOAA.NDBC:TRRF1:1,2019-09-13T23:00:00Z,25.2170,-80.6500,1.5,0.61,11111222 
ENP,ioos.station.NOAA.NDBC:TRRF1:1,2019-09-14T00:00:00Z,25.2170,-80.6500,1.5,0.61,11111222 
ENP,ioos.station.NOAA.NDBC:TRRF1:1,2019-09-14T02:00:00Z,25.2170,-80.6500,1.5,0.61,11111222 
ENP,ioos.station.NOAA.NDBC:TRRF1:1,2019-09-14T04:00:00Z,25.2170,-80.6500,1.5,0.61,11111222 
ENP,ioos.station.NOAA.NDBC:TRRF1:1,2019-09-14T06:00:00Z,25.2170,-80.6500,1.5,0.61,11111222 
ENP,ioos.station.NOAA.NDBC:TRRF1:1,2019-09-14T07:00:00Z,25.2170,-80.6500,1.5,0.61,11111222 
ENP,ioos.station.NOAA.NDBC:TRRF1:1,2019-09-14T08:00:00Z,25.2170,-80.6500,1.5,0.61,11111222 
ENP,ioos.station.NOAA.NDBC:TRRF1:1,2019-09-14T09:00:00Z,25.2170,-80.6500,1.5,0.61,11111222 
ENP,ioos.station.NOAA.NDBC:TRRF1:1,2019-09-14T10:00:00Z,25.2170,-80.6500,1.5,0.61,11111222 
ENP,ioos.station.NOAA.NDBC:TRRF1:1,2019-09-14T11:00:00Z,25.2170,-80.6500,1.5,0.61,11111222 
ENP,ioos.station.NOAA.NDBC:TRRF1:1,2019-09-14T12:00:00Z,25.2170,-80.6500,1.5,0.6,11111222 
ENP,ioos.station.NOAA.NDBC:TRRF1:1,2019-09-14T13:00:00Z,25.2170,-80.6500,1.5,0.6,11111222 
ENP,ioos.station.NOAA.NDBC:TRRF1:1,2019-09-14T14:00:00Z,25.2170,-80.6500,1.5,0.6,11111222 
ENP,ioos.station.NOAA.NDBC:TRRF1:1,2019-09-14T15:00:00Z,25.2170,-80.6500,1.5,0.6,11111222 
ENP,ioos.station.NOAA.NDBC:TRRF1:1,2019-09-14T16:00:00Z,25.2170,-80.6500,1.5,0.59,11111222 
ENP,ioos.station.NOAA.NDBC:TRRF1:1,2019-09-14T18:00:00Z,25.2170,-80.6500,1.5,0.59,11111222 
ENP,ioos.station.NOAA.NDBC:TRRF1:1,2019-09-14T19:00:00Z,25.2170,-80.6500,1.5,0.59,11111222 
ENP,ioos.station.NOAA.NDBC:TRRF1:1,2019-09-14T20:00:00Z,25.2170,-80.6500,1.5,0.59,11111222 
ENP,ioos.station.NOAA.NDBC:TRRF1:1,2019-09-14T21:00:00Z,25.2170,-80.6500,1.5,0.59,11111222 